www.pogodaiklimat.ru

Погода и климат >> Архив погоды >> Россия >> Якутия >> Теплый Ключ


ПОГОДА в Теплом Ключе

  • Прогноз погоды в Теплом Ключе
  • Монитор погоды в Теплом Ключе

АРХИВ ПОГОДЫ в Теплом Ключе

Время (UTC), дата Ветер
(напр.,м/с)
 
Видим.   Явления Облачность Т
(С)
Тd
(С)
f
(%)
Тe
(С)
Тes
(С)
Комфортность P
(гПа)
Po
(гПа)
Тmin
(С)
Tmax
(С)
R
(мм)
R24
(мм)
S
(см)
09 12.03 штиль 0 50 км 4/0 2000 м
[Ac trans]
-15.7 -22.7 55 -16 -16 1021.5 983.2 -7.6
12 12.03 В 1 10 км ясно -24.2 -27.4 75 -28 -28 1023.4 983.8
15 12.03 В 1 10 км ясно -28.1 -31.9 70 -32 -32 опасность
обморожения
1024.0 983.8
18 12.03 В 2 10 км ясно -29.3 -32.4 74 -37 -37 опасность
обморожения
1023.7 983.3
21 12.03 СВ 1 50 км 3/0 2000 м
[Ac trans]
-32.9 -36.5 70 -37 -37 опасность
обморожения
1023.7 982.8 -32.9 40
00 13.03 ЮВ 1 50 км 3/0 2000 м
[Ac trans]
-17.9 -23.8 60 -21 -19 1021.6 983.0 -33.4
03 13.03 ЮВ 2 50 км ясно -11.4 -21.0 45 -16 -12 1019.9 982.3
06 13.03 штиль 0 50 км ясно -7.6 -18.8 40 -8 -5 1018.3 981.3
09 13.03 штиль 0 50 км ясно -12.9 -21.2 50 -13 -13 1019.0 981.1 -7.2
12 13.03 В 2 10 км ясно -29.2 -33.0 70 -37 -37 опасность
обморожения
1020.7 981.6
15 13.03 В 2 10 км ясно -32.7 -35.8 74 -41 -41 опасность
обморожения
1022.0 981.1
18 13.03 В 1 10 км ясно -33.0 -36.0 74 -37 -37 опасность
обморожения
1021.2 980.4
21 13.03 В 1 50 км 3/0 2000 м
[Ac trans]
-33.8 -37.5 69 -38 -38 опасность
обморожения
1020.9 979.8 -33.9 40
00 14.03 ЮВ 1 50 км 8/0 2000 м
[Ac trans]
-18.1 -25.0 55 -21 -20 1017.8 979.3
03 14.03 ЮВ 2 50 км 5/0
[Cs]
-10.7 -20.3 45 -15 -11 1015.7 978.3
06 14.03 Ю 2 50 км 10/0 2000 м
[As trans]
-8.9 -15.0 61 -13 -12 1014.4 977.3
09 14.03 штиль 0 10 км слаб. снег 10/0 2000 м
[As op]
-13.1 -15.8 80 -13 -13 1014.3 976.7 -7.9 0.0
12 14.03 В 1 10 км слаб. снег 10/0 2000 м
[As op]
-17.8 -20.4 80 -21 -21 1014.6 976.2
15 14.03 В 1 10 км слаб. снег 10/0 2000 м
[As op]
-17.8 -19.7 85 -21 -21 1013.3 975.0
18 14.03 штиль 0 10 км слаб. снег 10/0 2000 м
[As op]
-16.4 -18.3 85 -16 -16 1011.8 973.8
21 14.03 штиль 0 10 км слаб. снег 10/0 2000 м
[As op]
-17.2 -19.1 85 -17 -17 1011.5 973.4 -18.9 0.9 41
00 15.03 З 2 10 км слаб. снег 10/0 2000 м
[As trans]
-12.9 -15.5 81 -18 -17 1011.0 973.5
03 15.03 З 1 10 км слаб. снег 10/0 2000 м
[As trans]
-12.5 -16.8 70 -15 -13 1011.1 973.7
06 15.03 З 2 50 км {снег} 8/0 2000 м
[Ac trans Ci fib]
-12.0 -17.2 65 -17 -15 1011.2 973.8
09 15.03 ЮЗ 1 50 км 5/0 2000 м
[Ac trans Ci fib]
-15.7 -19.1 75 -18 -18 1012.3 974.3 -10.6 0.2
12 15.03 В 2 10 км 3/0
[Ci fib]
-25.6 -28.1 79 -32 -32 опасность
обморожения
1014.4 974.9
15 15.03 ЮВ 2 10 км ясно -31.1 -34.8 70 -39 -39 опасность
обморожения
1015.2 974.8
18 15.03 В 1 10 км ясно -35.3 -38.4 73 -40 -40 опасность
обморожения
1015.9 974.8
21 15.03 В 1 50 км ясно -36.4 -40.1 68 -41 -41 опасность
обморожения
1016.5 975.2 -36.6 41
00 16.03 штиль 0 50 км ясно -23.5 -28.0 66 -24 -20 1014.7 975.5 -37.4
03 16.03 штиль 0 50 км ясно -14.6 -20.7 60 -15 -9 1012.9 975.0
06 16.03 штиль 0 50 км ясно -11.7 -20.0 50 -12 -9 1012.1 974.7
09 16.03 З 1 50 км 3/0
[Ci fib]
-16.1 -23.1 55 -19 -19 1013.2 975.1 -9.9
12 16.03 В 1 10 км 4/0
[Ci fib]
-28.4 -31.5 75 -32 -32 опасность
обморожения
1015.6 975.6
15 16.03 В 1 10 км 3/0
[Ci fib]
-33.8 -36.8 74 -38 -38 опасность
обморожения
1016.5 975.5
18 16.03 В 1 10 км 3/0
[Ci fib]
-36.8 -38.8 82 -42 -42 опасность
обморожения
1016.7 975.2
21 16.03 В 1 50 км ясно -38.0 -40.3 79 -43 -43 опасность
обморожения
1016.5 974.9 -38.6
00 17.03 штиль 0 50 км ясно -23.0 -27.8 65 -23 -20 1013.7 974.6
03 17.03 В 2 50 км ясно -12.8 -21.1 50 -17 -13 1011.2 973.7
06 17.03 С 1 50 км ясно -11.1 -20.7 45 -13 -11 1010.2 973.0
09 17.03 С 2 50 км ясно -14.9 -24.2 45 -20 -20 1011.3 973.5 -9.8
12 17.03 штиль 0 10 км ясно -27.0 -30.9 69 -27 -27 1014.0 974.3
15 17.03 В 1 10 км ясно -34.7 -38.4 69 -39 -39 опасность
обморожения
1015.4 974.4
18 17.03 В 1 10 км ясно -37.7 -40.5 75 -43 -43 опасность
обморожения
1016.2 974.6
21 17.03 штиль 0 50 км ясно -39.4 -42.9 69 -39 -39 опасность
обморожения
1017.2 975.3 -39.4 41
00 18.03 штиль 0 50 км ясно -24.4 -30.0 60 -24 -21 1015.0 975.7 -39.5
03 18.03 штиль 0 50 км ясно -13.5 -22.9 45 -14 -7 1013.2 975.6
06 18.03 СЗ 3 50 км ясно -13.2 -22.6 45 -19 -18 1013.5 975.9
09 18.03 З 2 50 км ясно -17.8 -25.7 50 -23 -23 1015.2 976.8 -12.1
12 18.03 В 1 10 км ясно -31.3 -35.0 70 -36 -36 опасность
обморожения
1018.4 977.9
15 18.03 В 2 10 км ясно -36.2 -39.7 70 -45 -45 опасность
обморожения
1019.9 978.5
18 18.03 В 2 10 км ясно -37.8 -41.9 65 -47 -47 опасность
обморожения
1021.2 979.4
21 18.03 В 1 50 км ясно -39.0 -43.2 64 -44 -44 опасность
обморожения
1022.4 980.4 -39.6 41
00 19.03 ЮВ 1 50 км ясно -21.4 -28.1 55 -25 -22 1020.6 981.5 -40.0
03 19.03 штиль 0 50 км ясно -14.8 -24.1 45 -15 -8 1020.1 981.9
06 19.03 Ю 1 50 км ясно -12.6 -23.4 40 -15 -12 1020.0 982.1

 

Местоположение метеостанции Теплый Ключ (Якутия, Россия): широта 62.78 долгота 136.80 высота над уровнем моря 289 м.

В архиве по умолчанию представлена погода в Теплом Ключе за последнюю неделю. Архивные данные за месяц целиком и за предыдущие месяцы, начиная с января 2011 года, Вы можете получить, выбрав интересующий диапазон дат из раскрывающегося списка и нажав кнопку "Ввод!".


*Определитесь, кто Вы:
робот инопланетянин человек

Внимание! Время в таблицах - всемирное. Для получения местного времени необходимо прибавить поправку, которая равна 9 ч.

Смотрите также архив погоды в соседних городах и на ближайших метеорологических станциях:

Погода в Охотском Перевозе (Якутия, Россия) (121 км)
Погода в Крест-Хальджае (Якутия, Россия) (122 км)
Погода в Томпо (Якутия, Россия) (139 км)
Погода в Восточной (Якутия, Россия) (150 км)
Погода в Ытык-Кюёле (Якутия, Россия) (175 км)
Погода в Чурапче (Якутия, Россия) (232 км)
Погода в Верхоянском Перевозе (Якутия, Россия) (249 км)
Погода в Агаякане (Якутия, Россия) (254 км)
Погода в Иэме (Якутия, Россия) (284 км)
Погода в Юртах (Якутия, Россия) (286 км)

Пояснения к столбцам:

Ветер - указаны скорость ветра в м/с - средняя за 10 мин, порывы в срок и между сроками (в фигурных скобках) и направление, откуда дует ветер: С - северный, СВ - северо-восточный, В - восточный, ЮВ - юго-восточный, Ю - южный, ЮЗ - юго-западный, З - западный, СЗ - северо-западный.
Видимость - горизонтальная дальность видимости в метрах или километрах. При видимости от 1 до 10 км при отсутствии осадков обычно наблюдается дымка, при ухудшении видимости до 1 км и менее - туман. В сухую погоду видимость может ухудшаться дымом, пылью или мглою.
Явления - указаны атмосферные явления, наблюдавшиеся в срок или в последний час перед сроком; фигурными скобками обозначены явления, наблюдавшиеся между сроками (за 1-3 часа до срока); квадратными скобками обозначены град или гололедные отложения с указанием их диаметра в мм.
Облачность - указаны через наклонную черту общая и нижняя облачность в баллах и высота нижней границы облаков в метрах; квадратными скобками обозначены формы облаков: Ci - перистые, Cs - перисто-слоистые, Cc - перисто-кучевые, Ac - высококучевые, As - высокослоистые, Sc - слоисто-кучевые, Ns - слоисто-дождевые, Cu - кучевые, Cb - кучево-дождевые. Подробнее классификацию облаков см. в Атласе облаков (PDF).
T - Температура воздуха - температура, измеренная на высоте 2 м над землей.
Td - Температура точки росы - температура, при понижении до которой содержащийся в воздухе водяной пар достигнет насыщения.
f - Относительная влажность воздуха - влажноcть воздуха, измеренная на высоте 2 м над землей.
Te - Эффективная температура - температура, которую ощущает одетый по сезону человек в тени. Характеристика душности погоды. При расчете учитывается влияние влажности воздуха и скорости ветра на теплоощущения человека.
Tes - Эффективная температура на солнце - температура, которую ощущает человек, с поправкой на солнечный нагрев. Характеристика знойности погоды. Зависит от высоты солнца над горизонтом, облачности и скорости ветра. Ночью, в пасмурную погоду, а также при ветре 12 м/с и более поправка равна нулю.
P - Атмосферное давление - приведенное к уровню моря атмосферное давление.
Po - Атмосферное давление - измеренное на уровне метеостанции атмосферное давление.
Tmin - Минимальная температура - минимум температуры воздуха на высоте 2 м над землей.
Tmax - Максимальная температура - максимум температуры воздуха на высоте 2 м над землей.
R - Количество осадков - Количество выпавших осадков за период времени, мм. При наведении курсора мыши на число - период времени, за который выпало указанное количество осадков.
R24 - Количество осадков - Количество выпавших осадков за 24 часа, мм.
S - Снежный покров - Высота снежного покрова, см. При наведении курсора мыши на число - состояние снежного покрова и степень покрытия местности в баллах.